{"data":{"norad_id":59887,"epoch":"2026-05-24T22:43:41.867040Z","epoch_age_seconds":80384,"freshness":"FRESH","line1":"1 59887U 24100C   26144.94701235 -.00002225  00000+0 -71353-4 0  9997","line2":"2 59887  43.0039  58.6694 0000771 263.1249  96.9515 15.27590959112773","mean_motion":15.27590959,"eccentricity":7.71e-5,"inclination_deg":43.0039,"raan_deg":58.6694,"arg_perigee_deg":263.1249,"mean_anomaly_deg":96.9515,"bstar":-7.1353e-5,"rev_number":11277,"period_min":94.266072440142,"perigee_km":482.48728612939,"apogee_km":483.54527596532,"semimajor_km":6861.1532810474,"source":"CELESTRAK","updated_at":"2026-05-25T13:38:19.095830Z"}}